Weather History for KP59 - April, 2013

Change the Weather History Date:

Monday, April 29, 2013

  Actual Average Record
Temperature  
Mean Temperature 46 °F -  
Max Temperature 57 °F 50 °F 73 °F (2007)
Min Temperature 37 °F 34 °F 27 °F (2012)
Degree Days  
Heating Degree Days 19    
Moisture  
Dew Point 42 °F    
Average Humidity 88    
Maximum Humidity 100    
Minimum Humidity 71    
Precipitation  
Precipitation 0.01 in - - ()
Sea Level Pressure  
Sea Level Pressure 29.77 in    
Wind  
Wind Speed 3 mph (WSW)    
Max Wind Speed 13 mph    
Max Gust Speed 18 mph    
Averages and records for this station are not official NWS values.
T = Trace of Precipitation, MM = Missing Value Source: NWS Daily Summary

Daily Weather History Graph

Daily Weather History Graph

Search for Another Location

Airport or City:

Trip Planner

Search our weather history database for the weather conditions in past years. The results will help you decide how hot, cold, wet, or windy it might be!

Date:

Astronomy

Apr. 29, 2013 Rise Set
Actual Time 6:37 AM EDT 9:00 PM EDT
Civil Twilight 6:03 AM EDT 9:35 PM EDT
Nautical Twilight 5:21 AM EDT 10:17 PM EDT
Astronomical Twilight 4:32 AM EDT 11:06 PM EDT
Moon 12:37 AM EDT (4/29) 9:51 AM EDT (4/29)
Length of Visible Light 15h 31m
Length of Day
14h 23m
Waning Gibbous, 80% of the Moon is Illuminated
Apr 29
Waning Gibbous
May 2
Last Quarter
May 9
New
May 18
First Quarter
May 25
Full

Hourly Weather History & Observations

Time (EDT) Temp. Windchill Dew Point Humidity Pressure Visibility Wind Dir Wind Speed Gust Speed Precip Events Conditions
12:51 AM 48.9 °F - 39.9 °F 71% 29.74 in - Calm Calm - 0.01 in   Unknown
1:51 AM 46.0 °F - 43.0 °F 89% 29.74 in - Calm Calm - N/A   Unknown
2:51 AM 45.0 °F 42.6 °F 44.1 °F 97% 29.72 in - WSW 4.6 mph - N/A   Unknown
3:51 AM 48.0 °F - 46.0 °F 93% 29.73 in - WSW 6.9 mph - N/A   Unknown
4:51 AM 46.9 °F - 45.0 °F 93% 29.74 in - Calm Calm - N/A   Unknown
5:51 AM 45.0 °F - 45.0 °F 100% 29.75 in - Calm Calm - N/A   Unknown
6:51 AM 37.0 °F 34.5 °F 37.0 °F 100% 29.77 in - SW 3.5 mph - N/A   Unknown
7:51 AM 39.0 °F - 37.9 °F 96% 29.78 in - Calm Calm - N/A   Unknown
8:51 AM 37.9 °F - 37.9 °F 100% 29.80 in - Calm Calm - N/A   Unknown
9:51 AM 39.9 °F - 39.0 °F 97% 29.80 in - Calm Calm - N/A   Unknown
10:51 AM 42.1 °F 35.7 °F 41.0 °F 96% 29.80 in - North 11.5 mph - N/A   Unknown
11:51 AM 43.0 °F 38.8 °F 39.9 °F 89% 29.80 in - NNW 6.9 mph - N/A   Unknown
12:51 PM 45.0 °F - 39.9 °F 82% 29.81 in - Calm Calm - N/A   Unknown
1:51 PM 43.0 °F - 37.9 °F 82% 29.81 in - Calm Calm - N/A   Unknown
2:51 PM 42.1 °F - 37.9 °F 85% 29.80 in - Calm Calm - N/A   Unknown
3:51 PM 48.0 °F - 39.9 °F 74% 29.77 in - Calm Calm - N/A   Unknown
4:51 PM 43.0 °F 40.3 °F 37.9 °F 82% 29.77 in - NNE 4.6 mph - N/A   Unknown
5:51 PM 42.1 °F 40.2 °F 37.9 °F 85% 29.76 in - North 3.5 mph - N/A   Unknown
6:51 PM 55.9 °F - 46.9 °F 72% 29.75 in - Calm Calm - N/A   Unknown
7:51 PM 52.0 °F - 46.0 °F 80% 29.76 in - Calm Calm - N/A   Unknown
8:51 PM 51.1 °F - 46.0 °F 83% 29.75 in - South 9.2 mph 17.3 mph N/A   Unknown
9:51 PM 52.0 °F - 46.9 °F 83% 29.74 in - SSW 9.2 mph - N/A   Unknown
10:51 PM 51.1 °F - 46.9 °F 86% 29.74 in - SW 11.5 mph 17.3 mph N/A   Unknown
11:51 PM 50.0 °F - 46.0 °F 86% 29.73 in - SW 12.7 mph 18.4 mph N/A   Unknown